TimeEST,TemperatureF,Dew PointF,Humidity,Sea Level PressureIn,VisibilityMPH,Wind Direction,Wind SpeedMPH,Gust SpeedMPH,PrecipitationIn,Events,Conditions,WindDirDegrees,DateUTC
12:15 AM,43.9,42.1,93,30.40,10.0,Calm,Calm,-,N/A,,Clear,0,2013-01-10 05:15:00
12:35 AM,43.9,42.1,93,30.39,10.0,Calm,Calm,-,N/A,,Clear,0,2013-01-10 05:35:00
12:55 AM,43.9,42.1,93,30.39,10.0,WNW,3.5,-,N/A,,Clear,300,2013-01-10 05:55:00
1:15 AM,44.4,42.4,93,30.40,10.0,Calm,Calm,-,N/A,,Clear,0,2013-01-10 06:15:00
1:35 AM,45.3,43.2,92,30.41,10.0,Calm,Calm,-,N/A,,Clear,0,2013-01-10 06:35:00
1:55 AM,45.7,43.5,92,30.42,10.0,Calm,Calm,-,N/A,,Clear,0,2013-01-10 06:55:00
3:15 AM,46.0,43.7,92,30.43,10.0,Calm,Calm,-,N/A,,Clear,0,2013-01-10 08:15:00
3:35 AM,45.5,43.3,92,30.43,10.0,Calm,Calm,-,N/A,,Clear,0,2013-01-10 08:35:00
3:55 AM,45.3,43.3,93,30.43,10.0,Calm,Calm,-,N/A,,Clear,0,2013-01-10 08:55:00
4:15 AM,44.8,42.8,93,30.42,10.0,Calm,Calm,-,N/A,,Clear,0,2013-01-10 09:15:00
4:35 AM,45.0,43.0,93,30.42,10.0,Calm,Calm,-,N/A,,Clear,0,2013-01-10 09:35:00
4:55 AM,45.0,42.8,92,30.43,10.0,Calm,Calm,-,N/A,,Clear,0,2013-01-10 09:55:00
5:15 AM,44.4,42.6,93,30.43,10.0,Calm,Calm,-,N/A,,Clear,0,2013-01-10 10:15:00
5:35 AM,44.4,42.6,93,30.43,10.0,Calm,Calm,-,N/A,,Clear,0,2013-01-10 10:35:00
5:55 AM,44.8,43.0,93,30.44,10.0,Calm,Calm,-,N/A,,Clear,0,2013-01-10 10:55:00
6:15 AM,43.7,41.9,93,30.46,10.0,North,3.5,-,N/A,,Clear,360,2013-01-10 11:15:00
6:35 AM,44.6,43.0,94,30.47,10.0,NNE,3.5,-,N/A,,Clear,20,2013-01-10 11:35:00
7:15 AM,47.5,45.3,92,30.48,10.0,Calm,Calm,-,N/A,,Clear,0,2013-01-10 12:15:00
7:35 AM,48.0,45.3,90,30.50,10.0,Calm,Calm,-,N/A,,Clear,0,2013-01-10 12:35:00
7:55 AM,47.8,44.8,89,30.51,10.0,Calm,Calm,-,N/A,,Clear,0,2013-01-10 12:55:00
8:15 AM,47.7,45.1,91,30.52,10.0,Calm,Calm,-,N/A,,Clear,0,2013-01-10 13:15:00
8:35 AM,49.8,46.9,90,30.53,10.0,Calm,Calm,-,N/A,,Clear,0,2013-01-10 13:35:00
8:55 AM,51.3,47.7,87,30.54,10.0,ENE,3.5,-,N/A,,Clear,60,2013-01-10 13:55:00
9:15 AM,53.6,48.6,83,30.53,10.0,East,3.5,-,N/A,,Clear,80,2013-01-10 14:15:00
9:35 AM,55.9,47.3,73,30.54,10.0,East,6.9,-,N/A,,Clear,80,2013-01-10 14:35:00
9:55 AM,57.9,45.1,62,30.54,10.0,ENE,10.4,-,N/A,,Clear,60,2013-01-10 14:55:00
10:15 AM,58.5,41.5,53,30.54,10.0,NE,12.7,18.4,N/A,,Clear,50,2013-01-10 15:15:00
10:35 AM,58.8,40.3,50,30.54,10.0,East,9.2,-,N/A,,Clear,90,2013-01-10 15:35:00
10:55 AM,59.7,40.3,49,30.54,10.0,ENE,5.8,-,N/A,,Clear,60,2013-01-10 15:55:00
11:35 AM,61.0,39.2,45,30.51,10.0,ENE,8.1,-,N/A,,Clear,70,2013-01-10 16:35:00
11:55 AM,61.3,38.1,42,30.50,7.0,East,5.8,-,N/A,,Clear,90,2013-01-10 16:55:00
12:15 PM,62.4,37.0,39,30.49,10.0,East,3.5,-,N/A,,Clear,100,2013-01-10 17:15:00
12:35 PM,63.0,36.5,37,30.49,10.0,ENE,9.2,-,N/A,,Clear,60,2013-01-10 17:35:00
12:55 PM,62.1,36.9,39,30.47,10.0,ENE,8.1,-,N/A,,Clear,70,2013-01-10 17:55:00
1:15 PM,62.8,36.0,37,30.47,10.0,NE,5.8,-,N/A,,Clear,50,2013-01-10 18:15:00
1:35 PM,61.9,35.1,37,30.47,10.0,NNE,3.5,-,N/A,,Clear,20,2013-01-10 18:35:00
1:55 PM,63.1,34.5,34,30.46,10.0,NNE,6.9,-,N/A,,Clear,30,2013-01-10 18:55:00
2:15 PM,63.9,34.2,33,30.46,10.0,ENE,5.8,-,N/A,,Clear,60,2013-01-10 19:15:00
2:35 PM,64.9,32.9,30,30.47,10.0,East,6.9,-,N/A,,Clear,80,2013-01-10 19:35:00
2:55 PM,66.0,31.3,27,30.47,10.0,ENE,5.8,-,N/A,,Clear,70,2013-01-10 19:55:00
3:15 PM,64.9,28.8,26,30.47,10.0,NE,5.8,-,N/A,,Clear,50,2013-01-10 20:15:00
3:35 PM,63.1,27.1,26,30.48,10.0,NE,5.8,-,N/A,,Clear,40,2013-01-10 20:35:00
3:55 PM,62.1,26.1,25,30.48,10.0,NE,6.9,-,N/A,,Clear,50,2013-01-10 20:55:00
4:15 PM,60.6,27.0,28,30.47,10.0,ENE,6.9,-,N/A,,Clear,60,2013-01-10 21:15:00
4:35 PM,59.4,27.5,30,30.48,10.0,ENE,3.5,-,N/A,,Clear,70,2013-01-10 21:35:00
4:55 PM,57.9,28.4,32,30.47,10.0,East,4.6,-,N/A,,Clear,80,2013-01-10 21:55:00
5:15 PM,56.3,29.5,36,30.47,10.0,ENE,3.5,-,N/A,,Clear,70,2013-01-10 22:15:00
5:35 PM,53.1,33.4,47,30.47,10.0,East,3.5,-,N/A,,Clear,90,2013-01-10 22:35:00
5:55 PM,52.0,33.4,49,30.47,10.0,Calm,Calm,-,N/A,,Clear,0,2013-01-10 22:55:00
6:15 PM,52.2,33.1,48,30.48,10.0,Calm,Calm,-,N/A,,Clear,0,2013-01-10 23:15:00
6:35 PM,50.7,33.8,52,30.49,10.0,ESE,3.5,-,N/A,,Clear,120,2013-01-10 23:35:00
6:55 PM,49.6,35.1,57,30.49,10.0,ESE,3.5,-,N/A,,Clear,120,2013-01-10 23:55:00
7:15 PM,51.3,33.8,51,30.49,10.0,ESE,3.5,-,N/A,,Clear,120,2013-01-11 00:15:00
7:35 PM,50.5,33.8,53,30.49,10.0,East,4.6,-,N/A,,Clear,100,2013-01-11 00:35:00
7:55 PM,49.6,33.8,54,30.50,10.0,ESE,4.6,-,N/A,,Clear,120,2013-01-11 00:55:00
8:15 PM,48.9,33.8,56,30.49,10.0,ESE,3.5,-,N/A,,Clear,120,2013-01-11 01:15:00
8:35 PM,48.0,33.8,58,30.49,10.0,ESE,3.5,-,N/A,,Clear,110,2013-01-11 01:35:00
8:55 PM,47.5,33.3,58,30.49,10.0,ESE,4.6,-,N/A,,Clear,110,2013-01-11 01:55:00
9:15 PM,46.9,32.5,57,30.49,10.0,ESE,4.6,-,N/A,,Clear,110,2013-01-11 02:15:00
9:35 PM,46.0,32.4,59,30.49,10.0,East,3.5,-,N/A,,Clear,100,2013-01-11 02:35:00
10:15 PM,44.4,32.5,63,30.49,10.0,East,3.5,-,N/A,,Clear,100,2013-01-11 03:15:00
10:35 PM,43.9,32.9,65,30.50,10.0,Calm,Calm,-,N/A,,Clear,0,2013-01-11 03:35:00
10:55 PM,41.9,34.0,73,30.49,10.0,Calm,Calm,-,N/A,,Clear,0,2013-01-11 03:55:00
11:15 PM,41.2,34.0,76,30.48,10.0,ENE,4.6,-,N/A,,Clear,60,2013-01-11 04:15:00
11:35 PM,41.0,34.0,76,30.48,10.0,Calm,Calm,-,N/A,,Clear,0,2013-01-11 04:35:00
11:55 PM,41.0,33.6,75,30.48,10.0,Calm,Calm,-,N/A,,Clear,0,2013-01-11 04:55:00